Weather in Krasnyy Uzel

Russia / Republic of Mordovia     54°26′10″N   45°14′33″E
temp.,
°C
wind,
m/s
gust,
m/s
humid.,
%
clouds,
%
prec.,
mm/h
press.,
hPa
HPBL,
m
4 march, thu
thu400:00−5wsw5139443 0.0 1008382
03:00−2wsw6129371 0.1 1006590
06:00−2wsw61294100 0.2 1003718
09:00−1wsw91591100 0.4 1000884
12:000wsw91595100 0.4 9981041
15:000wsw101694100 0.5 998997
18:000w71394100 0.2 999705
21:00−2w3693100 0.7 1000165
5 march, fri
fri500:00−4w2497100 0.1 999105
03:00−4nnw2397100 0.9 1000133
06:00−7n2395100 0.3 100271
09:00−8nnw2593100 0.3 1004158
12:00−6nw239029 0.0 1006286
15:00−5w249025 0.0 1008285
18:00−8wsw349224 0.0 100930
21:00−8sw379653 0.1 1012145
6 march, sat
sat600:00−9w4896100 0.1 1012181
03:00−13wnw449667 0.1 101485
06:00−15wnw34949 0.0 101533
09:00−14nw24924 0.0 1016136
12:00−11nw12830 0.0 1016305
15:00−10wnw12850 0.0 1015266
18:00−15sw11860 0.0 101520
21:00−16sw22849 0.0 101620
7 march, sun
sun700:00−14sw239190 0.0 101528
03:00−13sw349695 0.3 101492
06:00−13sw3596100 0.3 1014114
09:00−13sw389588 0.3 1012238
12:00−8sw7128330 0.0 1009694
15:00−7ssw9159065 0.1 1006927
18:00−6ssw101793100 0.4 10021113
21:00−5sw101792100 1.1 998976
8 march, mon
mon800:00−6w61284100 0.7 998882
03:00−12wsw5108267 0.7 1001191
06:00−13sw512800 0.0 1002212
09:00−10ssw512770 0.0 1000297
12:00−7ssw6108933 0.0 997562
15:00−4sw479567 1.7 996576
18:00−8wsw91585100 0.6 998873
21:00−8w101786100 1.1 1003842